| time (UTC) | temp C | wind direction | speed KPH | gust KPH | rain 1hr cm | rain 24hr cm | rain mn cm | humidity % | barometer mb |
| 20260505093001 | 12 | 360 | 0.0 | 1.6 | 0.00 | 0.00 | 0.00 | 76 | 1016.1 |
| 20260505084457 | 13 | 360 | 1.6 | 6.4 | 0.00 | 0.00 | 0.00 | 75 | 1016.0 |
| 20260505082959 | 13 | 360 | 1.6 | 4.8 | 0.00 | 0.00 | 0.00 | 74 | 1015.9 |
| 20260505081458 | 13 | 360 | 0.0 | 4.8 | 0.00 | 0.00 | 0.00 | 74 | 1016.0 |
| 20260505080000 | 13 | 360 | 0.0 | 1.6 | 0.00 | 0.00 | 0.00 | 73 | 1016.0 |
| 20260505072959 | 13 | 360 | 3.2 | 4.8 | 0.00 | 0.00 | 0.00 | 70 | 1015.9 |
| 20260505071457 | 14 | 360 | 3.2 | 6.4 | 0.00 | 0.00 | 0.00 | 70 | 1015.8 |
| 20260505065959 | 14 | 360 | 1.6 | 4.8 | 0.00 | 0.00 | 0.00 | 69 | 1015.6 |
| 20260505064458 | 14 | 360 | 1.6 | 6.4 | 0.00 | 0.00 | 0.00 | 68 | 1015.6 |
| 20260505063000 | 14 | 360 | 1.6 | 6.4 | 0.00 | 0.00 | 0.00 | 67 | 1015.8 |
| 20260505061458 | 15 | 360 | 3.2 | 8.0 | 0.00 | 0.00 | 0.00 | 67 | 1015.7 |
| 20260505055958 | 15 | 360 | 3.2 | 6.4 | 0.00 | 0.00 | 0.00 | 66 | 1015.9 |
| 20260505051457 | 16 | 360 | 3.2 | 8.0 | 0.00 | 0.00 | 0.00 | 63 | 1015.9 |
| 20260505040006 | 17 | 360 | 4.8 | 12.9 | 0.00 | 0.00 | 0.00 | 57 | 1016.2 |
| 20260505034500 | 17 | 360 | 6.4 | 14.5 | 0.00 | 0.00 | 0.00 | 56 | 1016.2 |
| 20260505033000 | 17 | 360 | 3.2 | 8.0 | 0.00 | 0.00 | 0.00 | 53 | 1016.1 |
| 20260505031459 | 17 | 360 | 1.6 | 6.4 | 0.00 | 0.00 | 0.00 | 52 | 1016.1 |
| 20260505030001 | 17 | 360 | 0.0 | 3.2 | 0.00 | 0.00 | 0.00 | 51 | 1016.1 |
| 20260505021459 | 18 | 360 | 1.6 | 6.4 | 0.00 | 0.00 | 0.00 | 47 | 1016.0 |
| 20260505014500 | 18 | 360 | 1.6 | 4.8 | 0.00 | 0.00 | 0.00 | 45 | 1015.6 |
| 20260505011459 | 18 | 360 | 0.0 | 3.2 | 0.00 | 0.00 | 0.00 | 45 | 1015.4 |
| 20260505010008 | 18 | 360 | 0.0 | 0.0 | 0.00 | 0.00 | 0.00 | 46 | 1015.2 |
| 20260505004459 | 20 | 360 | 0.0 | 0.0 | 0.00 | 0.00 | 0.00 | 39 | 1015.1 |
| 20260505000002 | 22 | 360 | 0.0 | 1.6 | 0.00 | 0.00 | 0.00 | 33 | 1014.8 |
| 20260504234459 | 22 | 360 | 0.0 | 1.6 | 0.00 | 0.00 | 0.00 | 32 | 1014.6 |
| 20260504233002 | 23 | 360 | 0.0 | 3.2 | 0.00 | 0.00 | 0.00 | 30 | 1014.4 |
| 20260504230005 | 24 | 360 | 0.0 | 1.6 | 0.00 | 0.00 | 0.00 | 29 | 1014.3 |
| 20260504224459 | 25 | 360 | 0.0 | 1.6 | 0.00 | 0.00 | 0.00 | 30 | 1014.4 |
| 20260504223000 | 25 | 360 | 0.0 | 1.6 | 0.00 | 0.00 | 0.00 | 31 | 1014.3 |
| 20260504221459 | 26 | 360 | 0.0 | 1.6 | 0.00 | 0.00 | 0.00 | 27 | 1014.3 |
| 20260504220001 | 26 | 360 | 0.0 | 1.6 | 0.00 | 0.00 | 0.00 | 24 | 1014.2 |
| 20260504214459 | 26 | 360 | 0.0 | 1.6 | 0.00 | 0.00 | 0.00 | 27 | 1014.4 |
| 20260504213002 | 26 | 360 | 0.0 | 1.6 | 0.00 | 0.00 | 0.00 | 28 | 1014.4 |
| 20260504211500 | 27 | 360 | 0.0 | 1.6 | 0.00 | 0.00 | 0.00 | 26 | 1014.3 |
| 20260504210003 | 26 | 360 | 0.0 | 1.6 | 0.00 | 0.00 | 0.00 | 25 | 1014.4 |
| 20260504204459 | 26 | 360 | 0.0 | 1.6 | 0.00 | 0.00 | 0.00 | 24 | 1014.6 |
| 20260504203001 | 26 | 360 | 0.0 | 1.6 | 0.00 | 0.00 | 0.00 | 24 | 1014.8 |
| 20260504200000 | 26 | 360 | 0.0 | 1.6 | 0.00 | 0.00 | 0.00 | 26 | 1014.9 |
| 20260504194459 | 26 | 360 | 0.0 | 1.6 | 0.00 | 0.00 | 0.00 | 24 | 1015.0 |
| 20260504193001 | 26 | 360 | 0.0 | 3.2 | 0.00 | 0.00 | 0.00 | 28 | 1015.1 |
| 20260504190003 | 25 | 360 | 0.0 | 3.2 | 0.00 | 0.00 | 0.00 | 28 | 1015.6 |
| 20260504184459 | 25 | 360 | 0.0 | 1.6 | 0.00 | 0.00 | 0.00 | 28 | 1016.0 |
| 20260504183000 | 25 | 360 | 0.0 | 1.6 | 0.00 | 0.00 | 0.00 | 29 | 1016.3 |
| 20260504181459 | 25 | 360 | 0.0 | 1.6 | 0.00 | 0.00 | 0.00 | 30 | 1016.5 |
| 20260504180001 | 24 | 360 | 0.0 | 1.6 | 0.00 | 0.00 | 0.00 | 35 | 1016.5 |
| 20260504174459 | 24 | 360 | 0.0 | 1.6 | 0.00 | 0.00 | 0.00 | 35 | 1016.6 |
| 20260504171459 | 23 | 360 | 0.0 | 1.6 | 0.00 | 0.00 | 0.00 | 33 | 1016.8 |